Date,TemperatureHighF,TemperatureAvgF,TemperatureLowF,DewpointHighF,DewpointAvgF,DewpointLowF,HumidityHigh,HumidityAvg,HumidityLow,PressureMaxIn,PressureMinIn,WindSpeedMaxMPH,WindSpeedAvgMPH,GustSpeedMaxMPH,PrecipitationSumIn
2013-1-1,76.0,75.7,75.0,-99.9,-99.9,-99.9,0,0,100,30.14,30.04,22,20,24,0.00
2013-1-2,76.0,76.0,76.0,-99.9,-99.9,-99.9,0,0,100,30.07,30.07,11,11,13,0.00
2013-1-3,82.0,79.5,78.0,-99.9,-99.9,-99.9,0,0,100,30.09,30.04,14,9,15,0.00
2013-1-4,75.0,73.5,72.0,-99.9,-99.9,-99.9,0,0,100,30.19,30.14,14,10,15,0.00
2013-1-5,75.0,74.3,73.0,-99.9,-99.9,-99.9,0,0,100,30.14,30.13,17,15,18,0.00
2013-1-6,79.0,63.4,78.0,-99.9,-99.9,-99.9,0,0,100,30.11,30.05,21,15,16,0.00
2013-1-7,78.0,77.2,76.0,-99.9,-99.9,-99.9,0,0,100,30.13,30.06,14,12,15,0.00
2013-1-8,78.0,77.2,77.0,-99.9,-99.9,-99.9,0,0,100,30.16,30.08,20,17,21,0.00
2013-1-9,78.0,78.0,78.0,-99.9,-99.9,-99.9,0,0,100,30.20,30.14,30,28,32,0.00
2013-1-10,78.0,77.3,77.0,-99.9,-99.9,-99.9,0,0,100,30.22,30.13,28,26,33,0.00
2013-1-11,78.0,77.2,77.0,-99.9,-99.9,-99.9,0,0,100,30.18,30.13,25,21,25,0.00
2013-1-12,77.0,77.0,77.0,-99.9,-99.9,-99.9,0,0,100,30.14,30.08,24,22,26,0.00
2013-1-13,77.0,76.6,76.0,-99.9,-99.9,-99.9,0,0,100,30.09,30.06,25,19,23,0.00
2013-1-14,77.0,76.2,76.0,-99.9,-99.9,-99.9,0,0,100,30.14,30.10,20,18,21,0.00
2013-1-15,78.0,77.2,76.0,-99.9,-99.9,-99.9,0,0,100,30.11,30.05,18,16,20,0.00
2013-1-16,78.0,77.5,77.0,-99.9,-99.9,-99.9,0,0,100,30.08,30.02,14,10,15,0.00
2013-1-17,78.0,76.3,76.0,-99.9,-99.9,-99.9,0,0,100,30.10,30.03,8,4,9,0.00
2013-1-18,63.0,63.0,63.0,-99.9,-99.9,-99.9,0,0,100,30.17,30.17,17,17,21,0.00
2013-1-19,69.0,69.0,69.0,-99.9,-99.9,-99.9,0,0,100,30.16,30.16,5,5,6,0.00
2013-1-21,72.0,71.2,71.0,-99.9,-99.9,-99.9,0,0,100,30.09,30.03,11,9,14,0.00
2013-1-22,68.0,67.2,67.0,-99.9,-99.9,-99.9,0,0,100,30.17,30.12,20,18,22,0.00
2013-1-23,71.0,70.0,69.0,-99.9,-99.9,-99.9,0,0,100,30.23,30.21,25,24,28,0.00
2013-1-24,70.0,69.5,69.0,-99.9,-99.9,-99.9,0,0,100,30.27,30.21,21,18,23,0.00
2013-1-25,72.0,70.3,69.0,-99.9,-99.9,-99.9,0,0,100,30.26,30.17,23,20,24,0.00
2013-1-26,71.0,69.6,68.0,-99.9,-99.9,-99.9,0,0,100,30.22,30.16,23,21,24,0.00
2013-1-28,76.0,75.5,75.0,-99.9,-99.9,-99.9,0,0,100,30.28,30.19,26,25,29,0.00
2013-1-29,76.0,76.0,76.0,-99.9,-99.9,-99.9,0,0,100,30.17,30.10,28,24,29,0.00
2013-1-30,79.0,76.7,76.0,-99.9,-99.9,-99.9,0,0,100,30.05,29.98,32,22,34,0.00
2013-1-31,67.0,67.0,67.0,-99.9,-99.9,-99.9,0,0,100,30.12,30.12,23,23,24,0.00
2013-2-1,68.0,65.4,62.0,-99.9,-99.9,-99.9,0,0,100,30.26,30.19,28,25,28,0.00
2013-2-2,71.0,69.6,66.0,-99.9,-99.9,-99.9,0,0,100,30.22,30.12,25,22,25,0.00
2013-2-3,65.0,64.9,64.0,-99.9,-99.9,-99.9,0,0,100,30.19,30.10,23,19,25,0.00
2013-2-4,70.0,67.1,64.0,-99.9,-99.9,-99.9,0,0,100,30.13,30.02,22,18,22,0.00
2013-2-5,75.0,75.0,75.0,-99.9,-99.9,-99.9,0,0,100,30.01,30.01,13,13,14,0.00
2013-2-6,73.0,61.9,71.0,-99.9,-99.9,-99.9,0,0,100,30.09,30.03,9,7,10,0.00
2013-2-7,78.0,76.3,75.0,-99.9,-99.9,-99.9,0,0,100,30.05,29.96,21,15,22,0.00
2013-2-8,75.0,75.0,75.0,-99.9,-99.9,-99.9,0,0,100,30.06,30.01,10,8,11,0.00
2013-2-9,76.0,72.3,70.0,-99.9,-99.9,-99.9,0,0,100,30.13,30.09,20,13,21,0.00
2013-2-10,75.0,75.0,75.0,-99.9,-99.9,-99.9,0,0,100,30.21,30.16,25,24,29,0.00
2013-2-11,76.0,75.8,75.0,-99.9,-99.9,-99.9,0,0,100,30.19,30.10,21,19,22,0.00
2013-2-12,79.0,77.4,76.0,-99.9,-99.9,-99.9,0,0,100,30.11,30.00,22,17,23,0.00
2013-2-13,81.0,77.1,76.0,-99.9,-99.9,-99.9,0,0,100,30.03,29.94,15,12,17,0.00
2013-2-14,77.0,77.0,77.0,-99.9,-99.9,-99.9,0,0,100,30.00,29.93,21,18,22,0.00
2013-2-16,68.0,68.0,68.0,-99.9,-99.9,-99.9,0,0,100,30.00,30.00,25,25,28,0.00
2013-2-17,55.0,54.0,53.0,-99.9,-99.9,-99.9,0,0,100,30.31,30.27,23,22,26,0.00
2013-2-18,69.0,64.5,60.0,-99.9,-99.9,-99.9,0,0,100,30.31,30.19,26,20,28,0.00
2013-2-19,77.0,75.0,73.0,-99.9,-99.9,-99.9,0,0,100,30.17,30.09,17,11,18,0.00
2013-2-20,72.0,71.0,70.0,-99.9,-99.9,-99.9,0,0,100,30.11,30.06,17,14,18,0.00
2013-2-21,76.0,75.9,75.0,-99.9,-99.9,-99.9,0,0,100,30.08,30.01,21,19,23,0.00
2013-2-22,77.0,76.7,76.0,-99.9,-99.9,-99.9,0,0,100,30.08,30.00,18,18,21,0.00
2013-2-23,80.0,76.9,76.0,-99.9,-99.9,-99.9,0,0,100,30.02,29.94,16,9,17,0.00
2013-2-24,81.0,78.4,76.0,-99.9,-99.9,-99.9,0,0,100,30.02,29.92,7,6,7,0.00
2013-2-25,80.0,79.0,78.0,-99.9,-99.9,-99.9,0,0,100,29.91,29.81,14,10,15,0.00
2013-2-26,79.0,66.9,77.0,-99.9,-99.9,-99.9,0,0,100,29.90,29.85,20,13,21,0.00
2013-2-27,74.0,72.5,71.0,-99.9,-99.9,-99.9,0,0,100,29.96,29.92,16,13,16,0.00
2013-3-2,63.0,63.0,63.0,-99.9,-99.9,-99.9,0,0,100,30.01,30.00,29,22,31,0.00
2013-3-3,60.0,60.0,60.0,-99.9,-99.9,-99.9,0,0,100,30.09,30.05,22,21,25,0.00
2013-3-4,60.0,58.6,58.0,-99.9,-99.9,-99.9,0,0,100,30.23,30.16,13,10,14,0.00
2013-3-5,73.0,71.0,69.0,-99.9,-99.9,-99.9,0,0,100,30.17,30.11,17,11,18,0.00
2013-3-6,72.0,69.1,66.0,-99.9,-99.9,-99.9,0,0,100,30.15,30.08,21,17,22,0.00
2013-3-7,59.0,58.1,58.0,-99.9,-99.9,-99.9,0,0,100,30.23,30.17,16,14,18,0.00
2013-3-8,67.0,66.0,65.0,-99.9,-99.9,-99.9,0,0,100,30.21,30.14,13,10,15,0.00
2013-3-9,71.0,69.9,68.0,-99.9,-99.9,-99.9,0,0,100,30.18,30.10,20,17,22,0.00
2013-3-10,72.0,71.3,70.0,-99.9,-99.9,-99.9,0,0,100,30.12,30.03,29,25,30,0.00
2013-3-11,76.0,74.2,73.0,-99.9,-99.9,-99.9,0,0,100,30.03,29.96,24,18,25,0.00
2013-3-12,74.0,73.7,73.0,-99.9,-99.9,-99.9,0,0,100,30.03,30.01,21,18,22,0.00
2013-3-13,66.0,65.6,65.0,-99.9,-99.9,-99.9,0,0,100,30.15,30.08,25,24,29,0.00
2013-3-14,63.0,52.0,62.0,-99.9,-99.9,-99.9,0,0,100,30.24,30.16,28,21,30,0.00
2013-3-15,66.0,56.0,62.0,-99.9,-99.9,-99.9,0,0,100,30.26,30.16,22,16,23,0.00
2013-3-16,71.0,69.7,68.0,-99.9,-99.9,-99.9,0,0,100,30.19,30.10,20,17,21,0.00
2013-3-17,74.0,73.6,73.0,-99.9,-99.9,-99.9,0,0,100,30.12,30.04,18,16,20,0.00
2013-3-18,75.0,75.0,75.0,-99.9,-99.9,-99.9,0,0,100,30.04,29.98,20,18,23,0.00
2013-3-19,71.0,71.0,71.0,-99.9,-99.9,-99.9,0,0,100,29.96,29.96,13,12,13,0.00
2013-3-20,74.0,72.3,71.0,-99.9,-99.9,-99.9,0,0,100,30.00,29.88,8,4,9,0.00
2013-3-21,68.0,56.2,67.0,-99.9,-99.9,-99.9,0,0,100,29.94,29.91,18,15,20,0.00
2013-3-22,78.0,77.0,76.0,-99.9,-99.9,-99.9,0,0,100,29.98,29.92,11,8,14,0.00
2013-3-23,80.0,77.0,74.0,-99.9,-99.9,-99.9,0,0,100,29.95,29.84,17,14,18,0.00
2013-3-24,78.0,77.0,76.0,-99.9,-99.9,-99.9,0,0,100,29.80,29.75,24,18,25,0.00
2013-3-25,71.0,69.0,67.0,-99.9,-99.9,-99.9,0,0,100,29.92,29.89,30,27,31,0.00
2013-3-26,62.0,61.0,60.0,-99.9,-99.9,-99.9,0,0,100,30.17,30.15,32,26,36,0.00
2013-3-27,58.0,57.0,55.0,-99.9,-99.9,-99.9,0,0,100,30.30,30.22,24,22,28,0.00
2013-3-28,66.0,64.1,63.0,-99.9,-99.9,-99.9,0,0,100,30.26,30.18,22,20,23,0.00
2013-3-29,71.0,69.0,67.0,-99.9,-99.9,-99.9,0,0,100,30.29,30.21,23,20,26,0.00
2013-3-30,72.0,71.0,70.0,-99.9,-99.9,-99.9,0,0,100,30.24,30.14,23,22,24,0.00
2013-3-31,75.0,74.0,73.0,-99.9,-99.9,-99.9,0,0,100,30.14,30.04,21,16,22,0.00
2013-4-1,76.0,75.4,75.0,-99.9,-99.9,-99.9,0,0,100,30.08,29.99,9,7,9,0.00
2013-4-2,74.0,73.4,73.0,-99.9,-99.9,-99.9,0,0,100,30.11,30.03,10,7,10,0.00
2013-4-3,76.0,75.7,75.0,-99.9,-99.9,-99.9,0,0,100,30.03,29.96,20,17,22,0.00
2013-4-4,81.0,77.6,76.0,-99.9,-99.9,-99.9,0,0,100,30.01,29.96,17,8,18,0.00
2013-4-5,70.0,70.0,70.0,-99.9,-99.9,-99.9,0,0,100,29.86,29.86,14,14,16,0.00
2013-4-6,67.0,66.1,65.0,-99.9,-99.9,-99.9,0,0,100,30.08,30.03,17,14,20,0.00
2013-4-7,75.0,74.7,74.0,-99.9,-99.9,-99.9,0,0,100,30.10,30.05,23,22,24,0.00
2013-4-8,76.0,75.6,75.0,-99.9,-99.9,-99.9,0,0,100,30.10,30.03,20,17,21,0.00
2013-4-9,77.0,76.5,76.0,-99.9,-99.9,-99.9,0,0,100,30.11,30.04,25,19,24,0.00
2013-4-10,78.0,77.5,77.0,-99.9,-99.9,-99.9,0,0,100,30.04,29.95,24,20,25,0.00
2013-4-11,78.0,78.0,78.0,-99.9,-99.9,-99.9,0,0,100,29.96,29.87,24,22,26,0.00
2013-4-12,81.0,80.0,79.0,-99.9,-99.9,-99.9,0,0,100,29.95,29.90,15,11,16,0.00
2013-4-13,81.0,80.0,79.0,-99.9,-99.9,-99.9,0,0,100,29.99,29.91,7,4,7,0.00
2013-4-14,81.0,80.0,79.0,-99.9,-99.9,-99.9,0,0,100,29.95,29.88,23,18,24,0.00
2013-4-15,85.0,70.0,79.0,-99.9,-99.9,-99.9,0,0,100,30.02,29.96,13,8,13,0.00
2013-4-16,81.0,70.5,80.0,-99.9,-99.9,-99.9,0,0,100,30.09,30.03,16,15,17,0.00
2013-4-17,80.0,79.7,79.0,-99.9,-99.9,-99.9,0,0,100,30.07,30.00,22,19,22,0.00
2013-4-18,80.0,79.9,79.0,-99.9,-99.9,-99.9,0,0,100,30.02,29.96,23,20,24,0.00
2013-4-19,81.0,80.3,80.0,-99.9,-99.9,-99.9,0,0,100,30.02,29.96,18,16,20,0.00
2013-4-20,81.0,79.8,78.0,-99.9,-99.9,-99.9,0,0,100,30.05,29.97,11,6,8,0.00
2013-4-21,81.0,68.7,80.0,-99.9,-99.9,-99.9,0,0,100,30.07,29.99,14,10,15,0.00
2013-4-22,83.0,80.1,79.0,-99.9,-99.9,-99.9,0,0,100,30.02,29.94,3,2,5,0.00
2013-4-23,81.0,79.3,77.0,-99.9,-99.9,-99.9,0,0,100,30.06,29.99,14,12,15,0.00
2013-4-24,79.0,78.5,78.0,-99.9,-99.9,-99.9,0,0,100,30.10,30.04,21,18,23,0.00
2013-4-25,79.0,78.5,78.0,-99.9,-99.9,-99.9,0,0,100,30.17,30.13,15,12,16,0.00
2013-4-26,78.0,77.2,76.0,-99.9,-99.9,-99.9,0,0,100,30.21,30.14,29,19,31,0.00
2013-4-27,78.0,67.8,76.0,-99.9,-99.9,-99.9,0,0,100,30.14,30.06,23,22,25,0.00
2013-4-28,79.0,78.5,78.0,-99.9,-99.9,-99.9,0,0,100,30.06,29.97,24,22,26,0.00
2013-4-29,80.0,78.2,75.0,-99.9,-99.9,-99.9,0,0,100,29.99,29.92,22,15,23,0.00
2013-4-30,85.0,80.4,79.0,-99.9,-99.9,-99.9,0,0,100,29.99,29.93,10,7,11,0.00
2013-5-1,75.0,75.0,75.0,-99.9,-99.9,-99.9,0,0,100,29.92,29.92,10,9,11,0.00
2013-5-2,72.0,72.0,72.0,-99.9,-99.9,-99.9,0,0,100,29.83,29.83,9,9,10,0.00
2013-5-3,78.0,77.8,77.0,-99.9,-99.9,-99.9,0,0,100,29.79,29.74,21,16,21,0.00
2013-5-4,76.0,76.0,76.0,-99.9,-99.9,-99.9,0,0,100,29.84,29.80,22,19,24,0.00
2013-5-5,71.0,62.1,71.0,-99.9,-99.9,-99.9,0,0,100,29.96,29.93,20,18,21,0.00
2013-5-6,75.0,74.0,73.0,-99.9,-99.9,-99.9,0,0,100,30.06,30.00,9,8,10,0.00
2013-5-7,76.0,75.7,75.0,-99.9,-99.9,-99.9,0,0,100,30.07,30.03,8,4,9,0.00
2013-5-8,76.0,67.1,76.0,-99.9,-99.9,-99.9,0,0,100,30.14,30.09,13,9,11,0.00
2013-5-9,79.0,78.2,77.0,-99.9,-99.9,-99.9,0,0,100,30.15,30.07,17,14,17,0.00
2013-5-10,82.0,78.2,80.0,-99.9,-99.9,-99.9,0,0,100,30.08,30.03,15,12,16,0.00
2013-5-11,83.0,81.5,80.0,-99.9,-99.9,-99.9,0,0,100,30.06,30.02,18,12,20,0.00
2013-5-12,83.0,81.0,79.0,-99.9,-99.9,-99.9,0,0,100,30.04,30.01,8,3,9,0.00
2013-5-13,79.0,65.8,79.0,-99.9,-99.9,-99.9,0,0,100,30.12,30.08,15,10,16,0.00
2013-5-14,78.0,77.8,77.0,-99.9,-99.9,-99.9,0,0,100,30.14,30.09,26,25,29,0.00
2013-5-15,78.0,77.3,77.0,-99.9,-99.9,-99.9,0,0,100,30.15,30.08,28,24,29,0.00
2013-5-16,78.0,61.7,77.0,-99.9,-99.9,-99.9,0,0,100,30.08,30.01,21,19,23,0.00
2013-5-17,80.0,75.3,79.0,-99.9,-99.9,-99.9,0,0,100,30.08,30.05,15,13,16,0.00
2013-5-18,81.0,80.9,80.0,-99.9,-99.9,-99.9,0,0,100,30.10,30.03,14,12,14,0.00
2013-5-19,81.0,80.2,80.0,-99.9,-99.9,-99.9,0,0,100,30.07,30.00,18,16,20,0.00
2013-5-20,83.0,81.4,80.0,-99.9,-99.9,-99.9,0,0,100,30.03,29.97,17,11,18,0.00
2013-5-21,85.0,82.6,81.0,-99.9,-99.9,-99.9,0,0,100,29.98,29.91,11,8,11,0.00
2013-5-22,82.0,81.0,80.0,-99.9,-99.9,-99.9,0,0,100,29.96,29.91,7,5,7,0.00
2013-5-23,81.0,67.3,80.0,-99.9,-99.9,-99.9,0,0,100,30.04,29.99,11,9,10,0.00
2013-5-24,81.0,80.1,79.0,-99.9,-99.9,-99.9,0,0,100,30.09,30.03,9,6,10,0.00
2013-5-25,82.0,81.8,81.0,-99.9,-99.9,-99.9,0,0,100,30.12,30.08,22,16,24,0.00
2013-5-26,82.0,81.0,80.0,-99.9,-99.9,-99.9,0,0,100,30.14,30.09,17,15,18,0.00
2013-5-27,81.0,79.0,78.0,-99.9,-99.9,-99.9,0,0,100,30.09,30.03,21,19,22,0.00
2013-5-29,76.0,76.0,76.0,-99.9,-99.9,-99.9,0,0,100,30.00,30.00,9,9,9,0.00
2013-5-30,85.0,83.2,80.0,-99.9,-99.9,-99.9,0,0,100,30.01,29.96,9,8,9,0.00
2013-5-31,82.0,81.3,81.0,-99.9,-99.9,-99.9,0,0,100,30.03,29.98,14,12,15,0.00
2013-6-1,83.0,82.2,81.0,-99.9,-99.9,-99.9,0,0,100,30.01,29.97,14,11,15,0.00
2013-6-8,83.0,82.7,82.0,-99.9,-99.9,-99.9,0,0,100,30.06,30.01,15,13,15,0.00
2013-6-9,83.0,82.6,82.0,-99.9,-99.9,-99.9,0,0,100,30.07,30.00,21,20,22,0.00
2013-6-10,83.0,82.6,82.0,-99.9,-99.9,-99.9,0,0,100,30.04,30.00,17,16,20,0.00
2013-6-11,88.0,83.4,82.0,-99.9,-99.9,-99.9,0,0,100,30.08,30.01,3,2,5,0.00
2013-6-12,82.0,82.0,82.0,-99.9,-99.9,-99.9,0,0,100,30.08,30.06,5,3,5,0.00
2013-6-13,85.0,84.0,83.0,-99.9,-99.9,-99.9,0,0,100,30.06,30.01,8,4,9,0.00
2013-6-14,83.0,82.0,81.0,-99.9,-99.9,-99.9,0,0,100,29.99,29.95,8,6,8,0.00
2013-6-15,84.0,83.2,82.0,-99.9,-99.9,-99.9,0,0,100,30.04,30.01,5,2,6,0.00
2013-6-16,84.0,84.0,84.0,-99.9,-99.9,-99.9,0,0,100,30.08,30.03,16,15,16,0.00
2013-6-17,84.0,83.5,83.0,-99.9,-99.9,-99.9,0,0,100,30.05,30.02,20,17,22,0.00
2013-6-18,85.0,85.0,85.0,-99.9,-99.9,-99.9,0,0,100,30.05,30.00,14,10,15,0.00
2013-6-19,86.0,61.7,85.0,-99.9,-99.9,-99.9,0,0,100,30.03,29.99,10,9,10,0.00
2013-6-20,85.0,84.7,84.0,-99.9,-99.9,-99.9,0,0,100,30.07,30.04,15,14,16,0.00
2013-6-22,85.0,84.2,83.0,-99.9,-99.9,-99.9,0,0,100,30.10,30.04,10,9,12,0.00
2013-6-23,84.0,83.0,82.0,-99.9,-99.9,-99.9,0,0,100,30.11,30.05,17,16,20,0.00
2013-6-24,84.0,82.7,81.0,-99.9,-99.9,-99.9,0,0,100,30.13,30.06,24,18,27,0.00
2013-6-25,84.0,83.4,83.0,-99.9,-99.9,-99.9,0,0,100,30.09,30.02,14,12,15,0.00
2013-6-26,84.0,83.3,83.0,-99.9,-99.9,-99.9,0,0,100,30.03,30.02,18,16,20,0.00
2013-6-27,84.0,83.3,83.0,-99.9,-99.9,-99.9,0,0,100,30.01,29.98,13,10,14,0.00
2013-6-28,87.0,87.0,87.0,-99.9,-99.9,-99.9,0,0,100,29.94,29.90,6,2,6,0.00
2013-6-29,83.0,82.1,82.0,-99.9,-99.9,-99.9,0,0,100,29.91,29.88,9,9,10,0.00
2013-6-30,82.0,81.2,81.0,-99.9,-99.9,-99.9,0,0,100,29.92,29.88,23,19,21,0.00
2013-7-2,82.0,81.8,81.0,-99.9,-99.9,-99.9,0,0,100,30.06,30.03,10,9,9,0.00
2013-7-17,80.0,79.3,79.0,-99.9,-99.9,-99.9,0,0,100,30.05,30.03,15,14,16,0.00
2013-7-19,84.0,83.1,83.0,-99.9,-99.9,-99.9,0,0,100,30.09,30.03,21,18,22,0.00
2013-7-20,86.0,84.5,83.0,-99.9,-99.9,-99.9,0,0,100,30.10,30.03,14,11,15,0.00
2013-7-21,85.0,84.4,84.0,-99.9,-99.9,-99.9,0,0,100,30.13,30.06,15,13,16,0.00
2013-7-22,85.0,83.9,83.0,-99.9,-99.9,-99.9,0,0,100,30.15,30.08,12,11,13,0.00
2013-7-23,87.0,85.2,84.0,-99.9,-99.9,-99.9,0,0,100,30.08,30.03,7,5,8,0.00
2013-7-24,84.0,83.4,82.0,-99.9,-99.9,-99.9,0,0,100,30.04,29.98,5,2,5,0.00
2013-7-25,83.0,56.9,82.0,-99.9,-99.9,-99.9,0,0,100,30.08,30.06,10,9,13,0.00
2013-7-26,84.0,83.3,83.0,-99.9,-99.9,-99.9,0,0,100,30.07,30.03,10,8,12,0.00
2013-7-27,85.0,84.4,83.0,-99.9,-99.9,-99.9,0,0,100,30.03,29.98,7,3,8,0.00
2013-7-28,89.0,87.1,85.0,-99.9,-99.9,-99.9,0,0,100,30.05,30.01,3,1,5,0.00
2013-7-29,86.0,85.6,85.0,-99.9,-99.9,-99.9,0,0,100,30.11,30.07,14,11,15,0.00
2013-7-30,84.0,83.5,83.0,-99.9,-99.9,-99.9,0,0,100,30.12,30.08,20,16,21,0.00
2013-7-31,85.0,84.8,84.0,-99.9,-99.9,-99.9,0,0,100,30.09,29.98,21,19,22,0.00
2013-8-1,88.0,85.7,84.0,-99.9,-99.9,-99.9,0,0,100,30.02,29.95,14,10,15,0.00
2013-8-2,85.0,84.4,84.0,-99.9,-99.9,-99.9,0,0,100,30.04,30.02,7,5,7,0.00
2013-8-3,86.0,84.5,84.0,-99.9,-99.9,-99.9,0,0,100,30.13,30.10,8,4,9,0.00
2013-8-4,87.0,86.2,85.0,-99.9,-99.9,-99.9,0,0,100,30.11,30.04,5,1,6,0.00
2013-8-5,84.0,84.0,84.0,-99.9,-99.9,-99.9,0,0,100,30.08,30.03,7,6,8,0.00
2013-8-7,86.0,84.2,82.0,-99.9,-99.9,-99.9,0,0,100,29.96,29.92,10,8,12,0.00
2013-8-8,85.0,84.7,84.0,-99.9,-99.9,-99.9,0,0,100,29.96,29.91,25,21,27,0.00
2013-8-10,85.0,84.4,83.0,-99.9,-99.9,-99.9,0,0,100,30.06,30.02,25,23,27,0.00
2013-8-11,85.0,85.0,85.0,-99.9,-99.9,-99.9,0,0,100,30.10,30.04,25,24,28,0.00
2013-8-12,85.0,67.1,84.0,-99.9,-99.9,-99.9,0,0,100,30.06,30.01,22,20,23,0.00
2013-8-13,85.0,79.8,84.0,-99.9,-99.9,-99.9,0,0,100,30.02,29.97,17,14,20,0.00
2013-8-14,84.0,83.6,83.0,-99.9,-99.9,-99.9,0,0,100,29.99,29.95,13,12,14,0.00
2013-8-15,85.0,69.5,84.0,-99.9,-99.9,-99.9,0,0,100,30.02,29.97,14,13,15,0.00
2013-8-16,85.0,59.1,85.0,-99.9,-99.9,-99.9,0,0,100,30.02,29.97,20,19,21,0.00
2013-8-17,86.0,85.1,85.0,-99.9,-99.9,-99.9,0,0,100,30.03,29.99,21,17,22,0.00
2013-8-18,85.0,68.4,84.0,-99.9,-99.9,-99.9,0,0,100,30.03,29.97,26,21,29,0.00
2013-8-19,85.0,37.2,85.0,-99.9,-99.9,-99.9,0,0,100,30.01,29.96,18,16,20,0.00
2013-8-21,85.0,67.6,84.0,-99.9,-99.9,-99.9,0,0,100,30.03,29.96,24,19,25,0.00
2013-8-22,85.0,84.3,84.0,-99.9,-99.9,-99.9,0,0,100,30.01,29.94,23,22,25,0.00
2013-8-23,86.0,84.7,83.0,-99.9,-99.9,-99.9,0,0,100,30.00,29.95,14,13,15,0.00
2013-8-24,86.0,85.6,85.0,-99.9,-99.9,-99.9,0,0,100,30.07,30.02,11,10,14,0.00
2013-8-25,85.0,84.4,83.0,-99.9,-99.9,-99.9,0,0,100,30.12,30.05,16,12,17,0.00
2013-8-26,85.0,82.0,80.0,-99.9,-99.9,-99.9,0,0,100,30.07,30.00,8,3,8,0.00
2013-8-28,83.0,81.0,79.0,-99.9,-99.9,-99.9,0,0,100,30.03,29.97,11,5,13,0.00
2013-8-29,88.0,72.6,83.0,-99.9,-99.9,-99.9,0,0,100,30.04,29.97,2,1,3,0.00
2013-8-30,85.0,83.9,83.0,-99.9,-99.9,-99.9,0,0,100,30.02,29.94,3,2,5,0.00
2013-8-31,87.0,85.0,82.0,-99.9,-99.9,-99.9,0,0,100,30.00,29.93,5,2,6,0.00
2013-9-1,84.0,83.5,83.0,-99.9,-99.9,-99.9,0,0,100,30.00,29.94,13,6,14,0.00
2013-9-2,86.0,84.1,83.0,-99.9,-99.9,-99.9,0,0,100,30.05,29.97,8,5,10,0.00
2013-9-4,87.0,85.6,85.0,-99.9,-99.9,-99.9,0,0,100,30.03,30.00,15,14,16,0.00
2013-9-5,86.0,85.2,85.0,-99.9,-99.9,-99.9,0,0,100,30.05,29.99,21,17,21,0.00
2013-9-6,86.0,85.7,85.0,-99.9,-99.9,-99.9,0,0,100,30.02,29.93,14,11,15,0.00
2013-9-7,84.0,84.0,84.0,-99.9,-99.9,-99.9,0,0,100,29.91,29.91,8,7,8,0.00
2013-9-8,85.0,82.9,81.0,-99.9,-99.9,-99.9,0,0,100,29.94,29.87,13,8,15,0.00
2013-9-9,86.0,69.8,84.0,-99.9,-99.9,-99.9,0,0,100,29.98,29.92,14,10,14,0.00
2013-9-10,85.0,83.4,83.0,-99.9,-99.9,-99.9,0,0,100,30.01,29.96,21,19,23,0.00
2013-9-11,85.0,84.5,84.0,-99.9,-99.9,-99.9,0,0,100,30.01,29.95,22,20,25,0.00
2013-9-13,86.0,84.9,84.0,-99.9,-99.9,-99.9,0,0,100,29.91,29.83,10,8,11,0.00
2013-9-14,85.0,84.3,84.0,-99.9,-99.9,-99.9,0,0,100,29.93,29.89,14,12,16,0.00
2013-9-16,81.0,81.0,81.0,-99.9,-99.9,-99.9,0,0,100,29.93,29.93,15,15,16,0.00
2013-9-19,85.0,82.9,81.0,-99.9,-99.9,-99.9,0,0,100,29.99,29.96,14,11,15,0.00
2013-9-20,83.0,82.6,82.0,-99.9,-99.9,-99.9,0,0,100,29.99,29.91,21,18,23,0.00
2013-9-21,86.0,68.1,84.0,-99.9,-99.9,-99.9,0,0,100,29.89,29.80,6,1,7,0.00
2013-9-22,86.0,83.7,82.0,-99.9,-99.9,-99.9,0,0,100,29.85,29.80,14,6,15,0.00
2013-9-23,86.0,67.1,83.0,-99.9,-99.9,-99.9,0,0,100,29.94,29.91,18,14,20,0.00
2013-9-24,84.0,83.2,83.0,-99.9,-99.9,-99.9,0,0,100,29.98,29.92,14,10,15,0.00
2013-9-25,84.0,83.2,83.0,-99.9,-99.9,-99.9,0,0,100,29.93,29.88,13,11,14,0.00
2013-9-26,84.0,83.3,83.0,-99.9,-99.9,-99.9,0,0,100,29.93,29.87,16,14,18,0.00
2013-9-27,83.0,60.7,82.0,-99.9,-99.9,-99.9,0,0,100,29.90,29.88,15,12,16,0.00
2013-9-28,87.0,83.5,81.0,-99.9,-99.9,-99.9,0,0,100,29.97,29.90,6,3,6,0.00
2013-9-29,84.0,83.5,83.0,-99.9,-99.9,-99.9,0,0,100,29.96,29.88,10,8,13,0.00
2013-9-30,85.0,65.7,83.0,-99.9,-99.9,-99.9,0,0,100,29.94,29.90,15,10,16,0.00
2013-10-2,84.0,83.4,83.0,-99.9,-99.9,-99.9,0,0,100,30.00,29.95,21,19,22,0.00
2013-10-3,85.0,68.2,84.0,-99.9,-99.9,-99.9,0,0,100,30.04,29.98,17,15,22,0.00
2013-10-4,84.0,83.5,83.0,-99.9,-99.9,-99.9,0,0,100,30.04,29.98,16,15,17,0.00
2013-10-5,83.0,82.4,81.0,-99.9,-99.9,-99.9,0,0,100,30.02,29.94,13,10,14,0.00
2013-10-6,85.0,65.3,84.0,-99.9,-99.9,-99.9,0,0,100,29.97,29.90,3,1,2,0.00
2013-10-7,83.0,82.6,82.0,-99.9,-99.9,-99.9,0,0,100,29.92,29.87,17,16,20,0.00
2013-10-8,83.0,82.4,82.0,-99.9,-99.9,-99.9,0,0,100,29.96,29.91,11,10,13,0.00
2013-10-9,81.0,81.0,81.0,-99.9,-99.9,-99.9,0,0,100,30.01,29.96,7,5,8,0.00
2013-10-10,82.0,81.4,80.0,-99.9,-99.9,-99.9,0,0,100,30.03,29.95,15,13,16,0.00
2013-10-11,83.0,82.4,81.0,-99.9,-99.9,-99.9,0,0,100,30.01,29.94,16,13,17,0.00
2013-10-12,83.0,82.2,82.0,-99.9,-99.9,-99.9,0,0,100,30.03,29.98,13,11,14,0.00
2013-10-13,83.0,82.2,81.0,-99.9,-99.9,-99.9,0,0,100,30.03,29.97,16,14,20,0.00
2013-10-14,81.0,80.3,80.0,-99.9,-99.9,-99.9,0,0,100,30.01,29.93,16,13,18,0.00
2013-10-15,80.0,79.6,79.0,-99.9,-99.9,-99.9,0,0,100,29.97,29.90,15,10,16,0.00
2013-10-16,81.0,80.9,80.0,-99.9,-99.9,-99.9,0,0,100,29.96,29.91,11,9,13,0.00
2013-10-17,81.0,80.6,80.0,-99.9,-99.9,-99.9,0,0,100,29.97,29.94,7,6,7,0.00
2013-10-18,83.0,82.4,81.0,-99.9,-99.9,-99.9,0,0,100,29.96,29.90,16,14,17,0.00
2013-10-19,82.0,82.0,82.0,-99.9,-99.9,-99.9,0,0,100,29.96,29.89,11,9,13,0.00
2013-10-20,83.0,63.5,82.0,-99.9,-99.9,-99.9,0,0,100,29.95,29.91,9,8,9,0.00
2013-10-21,85.0,84.3,83.0,-99.9,-99.9,-99.9,0,0,100,30.01,29.93,10,4,11,0.00
2013-10-22,84.0,83.3,83.0,-99.9,-99.9,-99.9,0,0,100,29.94,29.87,13,8,13,0.00
2013-10-23,82.0,82.0,82.0,-99.9,-99.9,-99.9,0,0,100,29.93,29.86,8,8,9,0.00
2013-10-24,78.0,78.0,78.0,-99.9,-99.9,-99.9,0,0,100,30.02,30.02,21,21,22,0.00
2013-10-25,78.0,77.6,77.0,-99.9,-99.9,-99.9,0,0,100,30.13,30.08,29,26,31,0.00
2013-10-26,79.0,78.4,77.0,-99.9,-99.9,-99.9,0,0,100,30.13,30.05,28,24,30,0.00
2013-10-27,79.0,78.0,77.0,-99.9,-99.9,-99.9,0,0,100,30.07,30.01,23,22,26,0.00
2013-10-28,81.0,79.6,78.0,-99.9,-99.9,-99.9,0,0,100,30.12,30.06,23,20,24,0.00
2013-10-29,80.0,79.4,78.0,-99.9,-99.9,-99.9,0,0,100,30.15,30.09,28,24,29,0.00
2013-10-30,80.0,79.5,79.0,-99.9,-99.9,-99.9,0,0,100,30.15,30.06,26,24,29,0.00
2013-10-31,81.0,81.0,81.0,-99.9,-99.9,-99.9,0,0,100,30.09,29.98,24,22,25,0.00
2013-11-1,85.0,83.2,81.0,-99.9,-99.9,-99.9,0,0,100,30.00,29.92,6,4,7,0.00
2013-11-2,80.0,80.0,80.0,-99.9,-99.9,-99.9,0,0,100,29.95,29.87,10,8,10,0.00
2013-11-3,77.0,74.7,73.0,-99.9,-99.9,-99.9,0,0,100,30.01,29.93,29,24,31,0.00
2013-11-4,79.0,77.8,76.0,-99.9,-99.9,-99.9,0,0,100,30.06,29.99,31,27,33,0.00
2013-11-5,77.0,77.0,77.0,-99.9,-99.9,-99.9,0,0,100,29.98,29.95,40,38,44,0.00
2013-11-6,81.0,80.1,79.0,-99.9,-99.9,-99.9,0,0,100,30.01,29.95,28,25,30,0.00
2013-11-7,77.0,77.0,77.0,-99.9,-99.9,-99.9,0,0,100,30.03,29.95,16,15,17,0.00
2013-11-8,79.0,77.2,76.0,-99.9,-99.9,-99.9,0,0,100,30.01,29.95,21,19,22,0.00
2013-11-9,81.0,80.3,79.0,-99.9,-99.9,-99.9,0,0,100,30.06,30.01,25,23,26,0.00
2013-11-10,80.0,79.2,79.0,-99.9,-99.9,-99.9,0,0,100,30.09,30.01,24,22,24,0.00
2013-11-11,79.0,78.5,78.0,-99.9,-99.9,-99.9,0,0,100,30.09,30.07,21,20,23,0.00
2013-11-12,78.0,78.0,78.0,-99.9,-99.9,-99.9,0,0,100,30.06,29.97,16,15,16,0.00
2013-11-13,74.0,27.8,74.0,-99.9,-99.9,-99.9,0,0,100,30.06,30.06,30,29,32,0.00
2013-11-14,75.0,75.0,75.0,-99.9,-99.9,-99.9,0,0,100,30.11,30.11,37,37,41,0.00
2013-11-15,79.0,79.0,79.0,-99.9,-99.9,-99.9,0,0,100,30.00,30.00,29,29,31,0.00
2013-11-17,80.0,80.0,80.0,-99.9,-99.9,-99.9,0,0,100,30.06,29.98,23,20,24,0.00
2013-11-18,82.0,60.2,79.0,-99.9,-99.9,-99.9,0,0,100,30.02,29.93,9,8,10,0.00
2013-11-19,77.0,77.0,77.0,-99.9,-99.9,-99.9,0,0,100,29.96,29.92,6,5,7,0.00
2013-11-20,83.0,81.0,79.0,-99.9,-99.9,-99.9,0,0,100,30.01,29.96,11,9,13,0.00
2013-11-21,81.0,80.1,80.0,-99.9,-99.9,-99.9,0,0,100,30.11,30.06,17,16,18,0.00
2013-11-22,80.0,30.0,80.0,-99.9,-99.9,-99.9,0,0,100,30.03,30.03,17,15,18,0.00
2013-11-23,81.0,80.2,80.0,-99.9,-99.9,-99.9,0,0,100,30.03,29.97,17,16,17,0.00
2013-11-24,78.0,77.6,77.0,-99.9,-99.9,-99.9,0,0,100,30.06,30.02,21,18,22,0.00
2013-11-26,81.0,80.2,80.0,-99.9,-99.9,-99.9,0,0,100,29.96,29.85,23,20,28,0.00
2013-11-27,75.0,74.4,74.0,-99.9,-99.9,-99.9,0,0,100,29.98,29.95,25,23,29,0.00
2013-11-28,64.0,61.4,60.0,-99.9,-99.9,-99.9,0,0,100,30.24,30.16,21,20,24,0.00
2013-11-29,73.0,71.7,71.0,-99.9,-99.9,-99.9,0,0,100,30.23,30.16,28,27,31,0.00
2013-11-30,73.0,71.7,71.0,-99.9,-99.9,-99.9,0,0,100,30.19,30.11,24,22,26,0.00
2013-12-1,72.0,72.0,72.0,-99.9,-99.9,-99.9,0,0,100,30.11,30.00,18,16,20,0.00
2013-12-2,74.0,72.5,72.0,-99.9,-99.9,-99.9,0,0,100,29.97,29.86,15,9,16,0.00
2013-12-3,79.0,77.7,77.0,-99.9,-99.9,-99.9,0,0,100,30.00,29.94,15,14,16,0.00
2013-12-4,80.0,79.5,79.0,-99.9,-99.9,-99.9,0,0,100,30.08,30.01,14,12,15,0.00
2013-12-5,80.0,79.0,78.0,-99.9,-99.9,-99.9,0,0,100,30.14,30.07,18,17,20,0.00
2013-12-6,80.0,79.0,78.0,-99.9,-99.9,-99.9,0,0,100,30.10,30.09,23,17,24,0.00
2013-12-7,78.0,77.6,77.0,-99.9,-99.9,-99.9,0,0,100,30.19,30.13,16,14,16,0.00
2013-12-8,80.0,79.2,78.0,-99.9,-99.9,-99.9,0,0,100,30.17,30.10,25,21,28,0.00
2013-12-9,80.0,79.4,79.0,-99.9,-99.9,-99.9,0,0,100,30.16,30.08,28,24,30,0.00
2013-12-10,80.0,56.5,80.0,-99.9,-99.9,-99.9,0,0,100,30.15,30.08,13,12,14,0.00
2013-12-11,79.0,53.9,77.0,-99.9,-99.9,-99.9,0,0,100,30.15,30.11,24,23,26,0.00
2013-12-12,75.0,75.0,75.0,-99.9,-99.9,-99.9,0,0,100,30.19,30.12,24,22,26,0.00
2013-12-13,77.0,77.0,77.0,-99.9,-99.9,-99.9,0,0,100,30.13,30.10,28,27,30,0.00
2013-12-14,80.0,79.5,79.0,-99.9,-99.9,-99.9,0,0,100,30.04,29.98,22,20,23,0.00
2013-12-15,79.0,42.8,78.0,-99.9,-99.9,-99.9,0,0,100,30.03,29.99,9,9,10,0.00
2013-12-17,71.0,69.4,68.0,-99.9,-99.9,-99.9,0,0,100,30.16,30.10,14,11,15,0.00
2013-12-18,71.0,56.8,71.0,-99.9,-99.9,-99.9,0,0,100,30.23,30.15,26,24,29,0.00
2013-12-19,74.0,73.0,72.0,-99.9,-99.9,-99.9,0,0,100,30.20,30.13,24,24,26,0.00
2013-12-20,79.0,50.4,78.0,-99.9,-99.9,-99.9,0,0,100,30.07,30.06,31,29,33,0.00
2013-12-21,79.0,79.0,79.0,-99.9,-99.9,-99.9,0,0,100,30.11,30.02,25,24,26,0.00
2013-12-22,80.0,80.0,80.0,-99.9,-99.9,-99.9,0,0,100,30.12,30.06,22,18,20,0.00
2013-12-23,82.0,80.7,79.0,-99.9,-99.9,-99.9,0,0,100,30.17,30.11,13,10,14,0.00
2013-12-24,76.0,72.8,72.0,-99.9,-99.9,-99.9,0,0,100,30.13,30.10,24,19,26,0.00
2013-12-25,72.0,72.0,72.0,-99.9,-99.9,-99.9,0,0,100,30.12,30.12,22,22,23,0.00
2013-12-26,75.0,56.0,74.0,-99.9,-99.9,-99.9,0,0,100,30.11,30.04,20,18,21,0.00
2013-12-27,74.0,74.0,74.0,-99.9,-99.9,-99.9,0,0,100,30.11,30.11,17,17,17,0.00
2013-12-28,79.0,79.0,79.0,-99.9,-99.9,-99.9,0,0,100,30.06,30.01,28,26,30,0.00
2013-12-30,73.0,72.3,72.0,-99.9,-99.9,-99.9,0,0,100,30.10,30.06,21,20,22,0.00
2013-12-31,73.0,73.0,73.0,-99.9,-99.9,-99.9,0,0,100,30.15,30.15,22,22,23,0.00
2014-1-1,80.0,79.7,79.0,-99.9,-99.9,-99.9,0,0,100,30.12,30.04,23,19,24,0.00
2014-1-2,78.0,77.6,77.0,-99.9,-99.9,-99.9,0,0,100,30.00,29.93,15,13,16,0.00